Weather Roundup
Issued by NWS Chicago, IL

Home | Current Version | Previous Version | Text Only | Print | Product List | Glossary Off
Versions: 1 2 3 4 5 6 7 8 9 10 11 12 13 14 15 16 17 18 19 20 21 22 23 24 25 26 27 28 29 30 31 32 33 34 35 36 37 38 39 40 41 42 43 44 45 46 47 48 49 50

000
NZUS59 KLOT 021608
HRRLOT

CHICAGO AREA WEATHER ROUNDUP
NATIONAL WEATHER SERVICE CHICAGO/ROMEOVILLE IL
1100 AM CDT SUN AUG 02 2015

NOTE: "FAIR" INDICATES FEW OR NO CLOUDS BELOW 12,000 FEET WITH NO
SIGNIFICANT WEATHER AND/OR OBSTRUCTIONS TO VISIBILITY.

* THESE STATIONS ARE NOT UNDER NWS QUALITY CONTROL. THEY ALSO MAY NOT
  REPORT WEATHER SUCH AS PRECIPITATION OR FOG.

ILZ005-006-012>014-019>023-021700-
NORTHEAST ILLINOIS

CITY           SKY/WX    TMP DP  RH WIND       PRES   REMARKS
OHARE          MOSUNNY   85  64  49 W16G24    29.81F HX  86
MIDWAY         MOSUNNY   88  62  41 W18G28    29.82F HX  88
AURORA         SUNNY     84  64  50 SW13      29.84F HX  85
LANSING*       SUNNY     87  66  49 W16G23    29.84F HX  89
JOLIET*        SUNNY     86  66  51 SW10G17   29.85F HX  88
WAUKEGAN       SUNNY     85  67  54 SW18G30   29.77F HX  87
DUPAGE AIRPORT SUNNY     84  64  50 SW21      29.83F HX  85
WHEELING       SUNNY     86  63  45 SW17G24   29.81F HX  87
KANKAKEE*      SUNNY     86  73  64 SW12      29.88F HX  93
MORRIS*        SUNNY     83  66  56 SW15G21   29.84F HX  85
LEWIS AIRPORT* SUNNY     83  63  49 SW12G18   29.85S HX  84
NORTHERLY IS     N/A     85  58  39 SW16        N/A  HX  84
$$

WIZ051-052-058>065-066-070>072-021700-
SOUTHEAST WISCONSIN

CITY           SKY/WX    TMP DP  RH WIND       PRES   REMARKS
MILWAUKEE      PTSUNNY   86  67  52 SW22G31   29.74F HX  89
KENOSHA*       SUNNY     85  69  58 W16G31    29.76F HX  89
RACINE*        SUNNY     86  68  54 SW20G30   29.75F HX  89
BURLINGTON     SUNNY     83  66  56 SW17G24   29.76F HX  85
WAUKESHA       MOSUNNY   84  66  54 SW12G23   29.76S HX  86
WEST BEND      PTSUNNY   79  66  65 W12G21    29.73F HX  81
$$

INZ001>003-010>013-019-020-021700-
NORTHWEST INDIANA

CITY           SKY/WX    TMP DP  RH WIND       PRES   REMARKS
GARY*          MOSUNNY   86  70  58 SW18G31   29.84F HX  90
MICHIGAN CITY* NOT AVBL
RENSSELAER*    NOT AVBL
VALPARAISO     SUNNY     85  69  58 SW16G25   29.87F HX  89
$$

LMZ740>746-021700-
SOUTHERN LAKE MICHIGAN

STATION/POSITION TIME  SKY/WX   TEMP WIND        PRES    VSBY
                                AIR  DIR/SP/G
                 (UTC)          (F)  (DEG/KT/KT) (MB)    (MI)
HARRISON CRIB    1500            81  230/ 18/ 27   N/A
BURNHAM HARBOR   1600            86  240/ 10/ 19   N/A
CALUMET HARBOR   1500            83  230/ 12/ 20   N/A
BURNS HARBOR     1520            81  230/ 18     1011.2F
MICHIGAN CITY    1500            78  190/ 18/ 22   N/A
$$

ABBREVIATIONS USED IN REMARKS
   TC - TEMPERATURE IN CELSIUS
  WCI - WIND CHILL INDEX
   HX - HEAT INDEX
  VSB - VISIBILITY
$$


USA.gov is the U.S. government's official web portal to all federal, state and local government web resources and services.